Regional Weather Roundup
Issued by NWS

Home | Current Version | Previous Version | Graphics & Text | Print | Product List | Glossary On
Versions: 1 2 3 4 5 6 7 8 9 10 11 12 13 14 15 16 17 18 19 20 21 22 23 24 25 26 27 28 29 30 31 32 33 34 35 36 37 38 39 40 41 42 43 44 45 46 47 48 49 50
000
ASUS45 KPSR 171310
RWRAZ

ARIZONA HOURLY REGIONAL WEATHER ROUNDUP
NATIONAL WEATHER SERVICE PHOENIX AZ
600 AM MST TUE OCT 17 2017

NOTE: FAIR INDICATES FEW OR NO CLOUDS BELOW 12,000 FEET WITH NO
SIGNIFICANT WEATHER AND/OR OBSTRUCTIONS TO VISIBILITY.

AZZ001>003-036-171400-
NORTHWEST ARIZONA

CITY           SKY/WX    TMP DP  RH WIND       PRES   REMARKS
BULLHEAD CITY  CLEAR     73  10   9 N9G16     30.03R
KINGMAN        CLEAR     48  16  27 CALM      30.18S
$$

AZZ004>008-015-016-018-171400-
NORTH CENTRAL ARIZONA

CITY           SKY/WX    TMP DP  RH WIND       PRES   REMARKS
GRAND CANYON   PTCLDY    30  13  49 E3        30.39S HAZE
WILLIAMS       PTCLDY    39  21  48 S12       30.38R WCI  32
PRESCOTT       PTCLDY    45  27  49 S5        30.29R
FLAGSTAFF      PTCLDY    31  21  66 CALM      30.40S
PAYSON           N/A     57  39  51 E3        30.31R
PAGE           PTCLDY    44  15  31 W3        30.31R
$$

AZZ009>014-017-171400-
NORTHEAST ARIZONA

CITY           SKY/WX    TMP DP  RH WIND       PRES   REMARKS
WINSLOW        PTCLDY    36  15  42 S3        30.33S
SAINT JOHNS    CLEAR     38  24  57 CALM      30.35S
WINDOW ROCK    CLEAR     27  11  51 S3        30.42S
SHOW LOW       CLEAR     41  30  65 S6        30.38S
$$

AZZ540-542>544-546-548-171400-
GREATER PHOENIX AREA

CITY           SKY/WX    TMP DP  RH WIND       PRES   REMARKS
PHOENIX        PTCLDY    73  44  35 CALM      30.00R
BUCKEYE        PTCLDY    64  27  24 N7        30.00S
GLENDALE       PTCLDY    66  39  37 CALM      30.02
LUKE AFB       PTCLDY    66  38  36 N6        30.00R
DEER VALLEY    CLEAR     76  40  27 NE3       30.03R
SCOTTSDALE     CLEAR     69  47  45 CALM      30.04R
MESA-FALCON    CLEAR     77  43  29 N10       30.03
MESA-GATEWAY   PTCLDY    66  45  45 SE6       30.03S
CHANDLER       CLEAR     70  45  40 NE6       30.02
$$

AZZ539-553-171400-
SOUTHWEST MARICOPA COUNTY AND PINAL COUNTY

CITY           SKY/WX    TMP DP  RH WIND       PRES   REMARKS
CASA GRANDE    NOT AVBL
$$

AZZ503-504-507>509-171400-
SOUTHEAST ARIZONA

CITY           SKY/WX    TMP DP  RH WIND       PRES   REMARKS
TUCSON         CLEAR     71  46  40 SE3       30.11S
DAVIS-MONTHAN  CLEAR     73  45  35 SE10G16   30.10R
RYAN FIELD     CLEAR     70  46  43 SE6       30.10
NOGALES        CLEAR     62  47  57 E7        30.18R
SIERRA VISTA   CLEAR     59  44  58 CALM      30.26R
DOUGLAS        CLEAR     55  44  66 N7        30.23R
SAFFORD        CLEAR     65  42  43 SE12      30.19R
$$

AZZ532-171400-
SOUTHWEST ARIZONA

CITY           SKY/WX    TMP DP  RH WIND       PRES   REMARKS
YUMA           PTCLDY    74  17  11 N6        29.95R
$$

CAZ041-043-047-048-061-525>527-560>570-171400-
SOUTHERN CALIFORNIA

CITY           SKY/WX    TMP DP  RH WIND       PRES   REMARKS
DOWNTOWN L.A.  CLEAR     68  35  29 CALM      29.96S
L.A. AIRPORT   PTCLDY    68  41  37 CALM      29.97R
SAN DIEGO      MOCLDY    68  39  34 CALM      29.97S
BURBANK        CLEAR     64  30  27 CALM      29.99S
ONTARIO        PTCLDY    66  36  32 VRB3      30.01R
RIVERSIDE      CLEAR     65  30  27 NE6       30.01R
PALM SPRINGS   PTCLDY    68  19  15 N7        29.99S
EL CENTRO NAS  PTCLDY    60  20  21 W6        29.96R
IMPERIAL       PTCLDY    63  29  27 W7        29.94R
BLYTHE         PTCLDY    68  10  10 W8        29.99S
NEEDLES        CLEAR     65   5   9 SW8       30.04R
$$

NVZ020-UTZ003-171400-
SOUTHERN NEVADA-UTAH

CITY           SKY/WX    TMP DP  RH WIND       PRES   REMARKS
LAS VEGAS      CLEAR     58  10  15 SW6       30.13S
SALT LAKE CITY PTCLDY    40  29  64 SE6       30.30S
$$

NMZ009-TXZ055-171400-
NEW MEXICO-WEST TEXAS

CITY           SKY/WX    TMP DP  RH WIND       PRES   REMARKS
ALBUQUERQUE    CLOUDY    48  27  44 N5        30.35R
EL PASO        CLEAR     55  38  52 N8        30.28R
$$


........................KEY........................
SKY/WX - SKY CONDITION/WEATHER
TMP    - TEMPERATURE IN FAHRENHEIT
DP     - DEW POINT IN FAHRENHEIT
RH     - RELATIVE HUMIDITY IN PERCENT
WIND   - DIRECTION AND SPEED IN MILES PER HOUR (MPH)
VRB    - VARIABLE WIND DIRECTION
PRES   - MEAN SEA LEVEL PRESSURE IN INCHES OF MERCURY
         F - FALLING PRESSURE   R - RISING PRESSURE
         S - STEADY PRESSURE
VSB    - VISIBILITY IN MILES
HX     - HEAT INDEX IN FAHRENHEIT
WCI    - WIND CHILL INDEX IN FAHRENHEIT
TC     - TEMPERATURE IN CELSIUS WHICH IS ALSO KNOWN AS
         TEMPERATURE IN CENTIGRADE
AFB    - AIR FORCE BASE
         LUKE AFB IS LUKE AIR FORCE BASE
         DAVIS-MONTHAN IS DAVIS-MONTHAN AIR FORCE BASE
NAS    - NAVAL AIR STATION
         EL CENTRO NAS IS EL CENTRO NAVAL AIR STATION
N/A    - NOT AVAILABLE




USA.gov is the U.S. government's official web portal to all federal, state and local government web resources and services.